Location: Buchdorf
(48.7842°N, 10.8275°E)
Time: 12:04:48
(UTC+00:00)

X-37B - Pass Details

Date: 15 March 2021
Orbit: 380 x 394 km, 45.0° (Epoch: 07 April)

Event Time Altitude Azimuth Distance (km) Brightness Sun altitude
Rises 18:35:00 0° 244° (WSW) 2,266 5.4 -12.7°
Reaches altitude 10° 18:37:10 10° 235° (SW) 1,416 4.0 -13.1°
Maximum altitude 18:40:06 34° 168° (SSE) 660 1.5 -13.6°
Enters shadow 18:41:11 26° 127° (SE) 808 1.6 -13.7°
